Powrót do katalogu

CZ-6A DEB

AktywnyPO
NORAD 61834·DEBRIS·🇨🇳 China

Wystrzelony Aug 6, 2024 z Taiyuan Satellite Launch Center

Loading…

Następne Przeloty (najbliższe 24 godziny)

TLE

ŚwieżeSource: Space-Track

Epoka: Sep 14, 2026, 11:24 UTC

1 61834U 24140ADA 26257.47511732  .00001415  00000-0  64545-3 0  9993
2 61834  88.9983 265.0419 0055526 268.4599  91.0230 14.20319320103107

Śledź CZ-6A DEB w czasie rzeczywistym z AllMySat

Download on the App Store